When you browse on this site, cookies collect data to enhance your experience and personalize the content and advertising you see.
Visit our Privacy Policy to learn more. By continuing to use the site, you agree to this use of cookies and data.
  • In Hungary
  • List of Countries
  • For 7 days
  • Water Temperature
  • Weather Map
  • News
  • Weather Widgets
  • user-avatar
    Login

    Hourly Weather Rudnya

    Today, 19 October, Saturday

    Time Temperature Precipitation Wind Pressure Humidity
    00:00 +12°C° 0 mm 2 mps 759 mmHg 82%
    01:00 +10°C° 0 mm 2 mps 759 mmHg 84%
    02:00 +10°C° 0 mm 2 mps 759 mmHg 86%
    03:00 +10°C° 0 mm 2 mps 759 mmHg 89%
    04:00 +10°C° 0 mm 2 mps 759 mmHg 90%
    05:00 +10°C° 0 mm 2 mps 759 mmHg 91%
    06:00 +10°C° 0 mm 2 mps 759 mmHg 92%
    07:00 +12°C° 0 mm 2 mps 760 mmHg 88%
    08:00 +13°C° 0 mm 2 mps 760 mmHg 84%
    09:00 +14°C° 0 mm 2 mps 761 mmHg 80%
    10:00 +15°C° 0 mm 2 mps 761 mmHg 73%
    11:00 +16°C° 0 mm 2 mps 761 mmHg 66%
    12:00 +17°C° 0 mm 2 mps 761 mmHg 59%
    13:00 +17°C° 0 mm 3 mps 761 mmHg 57%
    14:00 +18°C° 0 mm 3 mps 761 mmHg 54%
    15:00 +18°C° 0 mm 4 mps 761 mmHg 54%
    16:00 +15°C° 0 mm 4 mps 762 mmHg 62%
    17:00 +14°C° 0 mm 3 mps 762 mmHg 70%
    18:00 +12°C° 0 mm 3 mps 762 mmHg 78%
    19:00 +11°C° 0 mm 3 mps 763 mmHg 81%
    20:00 +11°C° 0 mm 3 mps 763 mmHg 84%
    21:00 +10°C° 0 mm 3 mps 763 mmHg 87%
    22:00 +9°C° 0 mm 3 mps 763 mmHg 89%
    23:00 +9°C° 0 mm 2 mps 764 mmHg 90%

    Tomorrow, 20 October, Sunday

    Time Temperature Precipitation Wind Pressure Humidity
    00:00 +8°C° 0 mm 2 mps 764 mmHg 92%
    01:00 +8°C° 0 mm 2 mps 764 mmHg 91%
    02:00 +7°C° 0 mm 2 mps 765 mmHg 91%
    03:00 +7°C° 0 mm 2 mps 765 mmHg 91%
    04:00 +7°C° 0 mm 2 mps 765 mmHg 91%
    05:00 +6°C° 0 mm 2 mps 765 mmHg 91%
    06:00 +6°C° 0 mm 2 mps 766 mmHg 91%
    07:00 +7°C° 0 mm 3 mps 766 mmHg 85%
    08:00 +8°C° 0 mm 3 mps 766 mmHg 78%
    09:00 +10°C° 0 mm 3 mps 766 mmHg 72%
    10:00 +11°C° 0 mm 3 mps 766 mmHg 67%
    11:00 +11°C° 0 mm 3 mps 766 mmHg 63%
    12:00 +13°C° 0 mm 2 mps 766 mmHg 58%
    13:00 +14°C° 0 mm 2 mps 766 mmHg 57%
    14:00 +14°C° 0 mm 2 mps 766 mmHg 56%
    15:00 +14°C° 0 mm 2 mps 766 mmHg 54%
    16:00 +13°C° 0 mm 2 mps 767 mmHg 59%
    17:00 +12°C° 0 mm 2 mps 767 mmHg 64%
    18:00 +10°C° 0 mm 2 mps 767 mmHg 69%
    19:00 +9°C° 0 mm 2 mps 767 mmHg 72%
    20:00 +9°C° 0 mm 2 mps 767 mmHg 74%
    21:00 +8°C° 0 mm 2 mps 767 mmHg 77%
    22:00 +9°C° 0 mm 1 mps 767 mmHg 79%
    23:00 +9°C° 0 mm 1 mps 767 mmHg 81%

    Day after tomorrow, 21 October, Monday

    Time Temperature Precipitation Wind Pressure Humidity
    00:00 +9°C° 0 mm 1 mps 767 mmHg 83%
    01:00 +9°C° 0 mm 1 mps 767 mmHg 84%
    02:00 +9°C° 0 mm 1 mps 767 mmHg 85%
    03:00 +9°C° 0 mm 1 mps 767 mmHg 86%
    04:00 +8°C° 0 mm 1 mps 767 mmHg 87%
    05:00 +8°C° 0 mm 1 mps 767 mmHg 87%
    06:00 +8°C° 0 mm 1 mps 767 mmHg 88%
    07:00 +9°C° 0 mm 1 mps 767 mmHg 82%
    08:00 +10°C° 0 mm 2 mps 767 mmHg 76%
    09:00 +12°C° 0 mm 2 mps 767 mmHg 71%
    10:00 +13°C° 0 mm 2 mps 767 mmHg 65%
    11:00 +14°C° 0 mm 2 mps 767 mmHg 60%
    12:00 +16°C° 0 mm 2 mps 767 mmHg 55%
    13:00 +16°C° 0 mm 3 mps 767 mmHg 55%
    14:00 +16°C° 0 mm 3 mps 766 mmHg 54%
    15:00 +17°C° 0 mm 3 mps 766 mmHg 53%
    16:00 +14°C° 0 mm 3 mps 766 mmHg 58%
    17:00 +13°C° 0 mm 3 mps 766 mmHg 63%
    18:00 +13°C° 0 mm 2 mps 765 mmHg 68%
    19:00 +11°C° 0 mm 3 mps 765 mmHg 69%
    20:00 +11°C° 0 mm 3 mps 765 mmHg 70%
    21:00 +10°C° 0 mm 3 mps 765 mmHg 72%
    22:00 +10°C° 0 mm 3 mps 765 mmHg 73%
    23:00 +10°C° 0 mm 3 mps 764 mmHg 74%

    22 October, Tuesday

    Time Temperature Precipitation Wind Pressure Humidity
    00:00 +10°C° 0 mm 4 mps 764 mmHg 75%
    01:00 +8°C° 0 mm 4 mps 764 mmHg 76%
    02:00 +8°C° 0 mm 4 mps 764 mmHg 77%
    03:00 +8°C° 0 mm 4 mps 764 mmHg 77%
    04:00 +8°C° 0 mm 4 mps 763 mmHg 76%
    05:00 +8°C° 0 mm 4 mps 763 mmHg 75%
    06:00 +8°C° 0 mm 4 mps 763 mmHg 75%
    07:00 +10°C° 0 mm 5 mps 763 mmHg 71%
    08:00 +12°C° 0 mm 5 mps 762 mmHg 67%
    09:00 +13°C° 0 mm 6 mps 762 mmHg 63%
    10:00 +14°C° 0 mm 6 mps 762 mmHg 60%
    11:00 +15°C° 0 mm 6 mps 761 mmHg 57%
    12:00 +16°C° 0 mm 6 mps 761 mmHg 54%
    13:00 +17°C° 0 mm 6 mps 761 mmHg 54%
    14:00 +17°C° 0 mm 6 mps 761 mmHg 54%
    15:00 +17°C° 0 mm 6 mps 760 mmHg 54%
    16:00 +16°C° 0 mm 5 mps 760 mmHg 59%
    17:00 +15°C° 0 mm 4 mps 760 mmHg 64%
    18:00 +14°C° 0 mm 4 mps 761 mmHg 69%
    19:00 +13°C° 0 mm 4 mps 761 mmHg 74%
    20:00 +12°C° 0 mm 3 mps 761 mmHg 79%
    21:00 +11°C° 0 mm 3 mps 761 mmHg 84%
    22:00 +10°C° 0 mm 3 mps 761 mmHg 85%
    23:00 +9°C° 0 mm 3 mps 761 mmHg 86%

    23 October, Wednesday

    Time Temperature Precipitation Wind Pressure Humidity
    00:00 +8°C° 0 mm 3 mps 761 mmHg 87%
    01:00 +7°C° 0 mm 3 mps 761 mmHg 87%
    02:00 +7°C° 0 mm 2 mps 762 mmHg 88%
    03:00 +7°C° 0 mm 2 mps 762 mmHg 88%
    04:00 +6°C° 0 mm 2 mps 762 mmHg 88%
    05:00 +6°C° 0 mm 2 mps 762 mmHg 87%
    06:00 +7°C° 0 mm 1 mps 762 mmHg 87%
    07:00 +8°C° 0 mm 1 mps 762 mmHg 80%
    08:00 +9°C° 0 mm 1 mps 763 mmHg 73%
    09:00 +10°C° 0 mm 1 mps 763 mmHg 66%
    10:00 +12°C° 0 mm 1 mps 763 mmHg 60%
    11:00 +13°C° 0 mm 1 mps 763 mmHg 54%
    12:00 +14°C° 0 mm 1 mps 763 mmHg 48%
    13:00 +15°C° 0 mm 1 mps 763 mmHg 47%
    14:00 +15°C° 0 mm 1 mps 762 mmHg 45%
    15:00 +15°C° 0 mm 2 mps 762 mmHg 44%
    16:00 +14°C° 0 mm 2 mps 762 mmHg 48%
    17:00 +13°C° 0 mm 2 mps 762 mmHg 52%
    18:00 +10°C° 0 mm 2 mps 762 mmHg 57%
    19:00 +10°C° 0 mm 2 mps 762 mmHg 57%
    20:00 +10°C° 0 mm 2 mps 762 mmHg 58%
    21:00 +10°C° 0 mm 2 mps 762 mmHg 58%
    22:00 +10°C° 0 mm 3 mps 762 mmHg 60%
    23:00 +10°C° 0 mm 3 mps 762 mmHg 63%

    24 October, Thursday

    Time Temperature Precipitation Wind Pressure Humidity
    00:00 +9°C° 0 mm 3 mps 762 mmHg 65%
    01:00 +9°C° 0 mm 3 mps 762 mmHg 68%
    02:00 +9°C° 0 mm 3 mps 762 mmHg 71%
    03:00 +9°C° 0 mm 3 mps 762 mmHg 74%
    04:00 +8°C° 0 mm 3 mps 761 mmHg 74%
    05:00 +8°C° 0 mm 3 mps 761 mmHg 74%
    06:00 +8°C° 0 mm 3 mps 761 mmHg 75%
    07:00 +10°C° 0 mm 4 mps 761 mmHg 71%
    08:00 +11°C° 0 mm 4 mps 761 mmHg 68%
    09:00 +12°C° 0 mm 5 mps 761 mmHg 64%
    10:00 +14°C° 0 mm 5 mps 761 mmHg 62%
    11:00 +15°C° 0 mm 5 mps 760 mmHg 60%
    12:00 +17°C° 0 mm 6 mps 760 mmHg 58%
    13:00 +17°C° 0 mm 5 mps 760 mmHg 58%
    14:00 +17°C° 0 mm 5 mps 760 mmHg 58%
    15:00 +17°C° 0 mm 5 mps 760 mmHg 58%
    16:00 +16°C° 0 mm 5 mps 760 mmHg 64%
    17:00 +15°C° 0 mm 4 mps 760 mmHg 69%
    18:00 +13°C° 0 mm 3 mps 760 mmHg 75%
    19:00 +13°C° 0 mm 3 mps 760 mmHg 78%
    20:00 +13°C° 0 mm 3 mps 760 mmHg 80%
    21:00 +12°C° 0 mm 3 mps 760 mmHg 82%
    22:00 +12°C° 0 mm 3 mps 760 mmHg 84%
    23:00 +11°C° 0 mm 3 mps 760 mmHg 85%
    Show more